x

Buoy E01 - Central Maine Shelf (44032) Wave Buoy

11:04 - Tue 23rd Sep 2014 All times are EDT. -4 hours from GMT.

  • Sig Wave height 2.0ft
  • Peak Period 5s
  • Wind
    7mph, 9mph gusts
  • Sea Temp 56°f
  • Luft Temp 58°f
  • Sea Pressure 1027.8mb
  • Buoy E01 - Central Maine Shelf
  • Buoy E01 - Central Maine Shelf

More Historic Weather Station data

Upgrade to MSW Pro to gain access to the past 30 days of data for over 8000 Wavebouys and Weather Stations around the globe.

Join Pro

Comparision Forecast

View Surf forecast
   
Di 09/23 11:04 2ft 5s 7 9 mph 1027.8mb 56f 58f
10:04 3.5ft 11s 4 7 mph 1027.1mb 56f 58f
9:04 3.5ft 11s 4
mph
1026.7mb 56f 57f
8:04 4ft 8s 7
mph
1026.1mb 56f 58f
7:04  -   -  9 11 mph 1025mb 56f 58f
6:04 5ft 8s 16
mph
1024mb 56f 58f
5:04 4.5ft 11s 18 20 mph 1023.3mb 56f 57f
4:04 5ft 11s 18 22 mph 1022.8mb 56f 57f
3:04  -   -  20 25 mph 1022.5mb 56f 56f
2:04 4.5ft 11s 18 20 mph 1022.2mb 56f 56f
1:04 3ft 8s 16 18 mph 1022.1mb 56f 55f
12:04 4ft 11s 16 18 mph 1022.2mb 56f 55f
11:04 4.5ft 11s 13 16 mph 1022.2mb 56f 54f
10:04  -   -  11 13 mph 1021.9mb 56f 54f
9:04 5ft 11s 13 18 mph 1021.9mb 56f 54f
8:04 5ft 11s 18 20 mph 1021.3mb 56f 53f
7:04 4.5ft 11s 13 18 mph 1020.7mb 56f 53f
6:04 5ft 11s 13 16 mph 1019.8mb 56f 52f
5:04 6.5ft 11s 16 20 mph 1019.2mb 56f 53f
4:04 7ft 11s 18 22 mph 1018.4mb 56f 53f
3:04 6.5ft 11s 22 25 mph 1017.6mb 56f 53f
2:04 6ft 11s 20 25 mph 1017.2mb 56f 53f
1:04 6ft 11s 20 25 mph 1016.6mb 56f 54f
12:04 7ft 11s 20 25 mph 1015.6mb 56f 54f
Mo 09/22 11:04 6ft 11s 22 29 mph 1014.8mb 56f 54f
10:04 7.5ft 11s 20 25 mph 1014.2mb 56f 55f
9:04 6.5ft 11s 18 20 mph 1012.8mb 56f 56f
8:04 7ft 11s 18 22 mph 1011.6mb 57f 57f
7:04 8ft 11s 18 22 mph 1010mb 57f 59f
6:04 9ft 11s 9 13 mph 1008.5mb 57f 60f
5:04 11ft 11s 18 22 mph 1006.8mb 57f 61f
4:04 12.5ft 11s 16 20 mph 1005.5mb 57f 62f
3:04 9.5ft 11s 16 20 mph 1004.3mb 56f 62f
2:04 10.5ft 11s 22 27 mph 1003mb 56f 62f
1:04 8ft 11s 18 22 mph 1002.2mb 56f 61f
12:04 4.5ft 5s 18 20 mph 1001.7mb 56f 60f
11:04 4ft 5s 18 20 mph 1001.1mb 56f 60f
10:04 4.5ft 4s 20 22 mph 1000.6mb 56f 60f
9:04 2.5ft 4s 16 20 mph 1000.2mb 56f 60f
8:04 3.5ft 8s 16 18 mph 999.5mb 56f 60f
7:04 2.5ft 8s 16 18 mph 999.2mb 56f 59f
6:04 2.5ft 8s 13
mph
998.3mb 56f 58f
5:04 2.5ft 8s 7 9 mph 997.8mb 56f 58f
4:04 2.5ft 5s 4 7 mph 997.5mb 57f 58f
3:04 2.5ft 8s 2
mph
997.3mb 57f 58f
2:04 2.5ft 5s 2
mph
998.1mb 56f 58f
1:04 2.5ft 5s 4
mph
998.4mb 56f 58f
12:04 2ft 5s 2 4 mph 999.2mb 56f 59f
So 09/21 11:04 2.5ft 5s 4 7 mph 1000.3mb 56f 59f
10:04 2ft 5s 7
mph
1001.5mb 56f 58f
9:04 2.5ft 11s 9 11 mph 1002.3mb 56f 59f
8:04 2ft 4s 9
mph
1003.4mb 56f 59f
7:04 2.5ft 5s 11
mph
1004.2mb 56f 59f
6:04 2.5ft 5s 11 13 mph 1005.5mb 56f 59f
5:04 2.5ft 5s 9 11 mph 1006.5mb 57f 59f
4:04 3.5ft 5s 9 11 mph 1007.3mb 57f 59f
3:04 2.5ft 5s 11
mph
1008.3mb 57f 59f
2:04 2.5ft 5s 9 11 mph 1009.2mb 57f 60f
1:04 2.5ft 5s 13 16 mph 1010.2mb 57f 60f
12:04 2.5ft 5s 13 16 mph 1011.6mb 56f 60f
11:04 3ft 5s 16
mph
1012.4mb 56f 59f
10:04 3ft 5s 9 11 mph 1013.2mb 56f 60f
9:04 2.5ft 5s 4
mph
1014.1mb 56f 58f
8:04 3.5ft 5s 9 11 mph 1014.2mb 56f 59f
7:04 3ft 5s 9
mph
1014.3mb 56f 59f
6:04 3.5ft 5s 11 13 mph 1014.6mb 56f 59f
5:04 4ft 5s 9
mph
1014.9mb 56f 59f
4:04 3.5ft 5s 11 13 mph 1015.5mb 56f 59f
3:04 4ft 5s 13 18 mph 1016mb 56f 59f
2:04 5.5ft 6s 16 18 mph 1016.7mb 56f 59f
1:04 5ft 6s 11 13 mph 1017.1mb 56f 59f
12:04 5.5ft 6s 18 22 mph 1017.3mb 55f 60f
Sa 09/20 11:04 5ft 6s 18 25 mph 1017.8mb 55f 60f
10:04 5ft 5s 18 20 mph 1018.5mb 55f 59f
9:04 5ft 6s 18 20 mph 1019mb 55f 59f
8:04 5ft 6s 16 18 mph 1019.7mb 55f 59f
7:04 5.5ft 6s 16 18 mph 1019.7mb 56f 59f
6:04 5ft 5s 13 18 mph 1020.1mb 56f 58f
5:04 4.5ft 5s 11 13 mph 1020.8mb 56f 58f
4:04 5.5ft 5s 16 18 mph 1021.2mb 56f 58f
3:04 5ft 5s 20 22 mph 1021.7mb 56f 58f
2:04 4.5ft 5s 16 18 mph 1022.1mb 56f 58f
1:04 4.5ft 5s 16 18 mph 1023.3mb 55f 57f
12:04 4ft 5s 18 22 mph 1024.1mb 55f 56f
11:04 4ft 5s 20 22 mph 1024.3mb 55f 56f
10:04 3.5ft 5s 18 22 mph 1025.6mb 55f 56f
9:04 3.5ft 5s 18 20 mph 1025.9mb 55f 56f
8:04 3.5ft 5s 16 20 mph 1026.5mb 55f 55f
7:04 3.5ft 4s 18 22 mph 1027mb 55f 55f
6:04 3.5ft 5s 18 20 mph 1027.1mb 55f 55f